Terminal Aerodrome Forecast
Issued by NWS Upton, NY

Home | Current Version | Previous Version | Text Only | Print | Product List | Glossary On
Versions: 1 2 3 4 5 6 7 8 9 10 11 12 13 14 15 16 17 18 19 20 21 22 23 24 25 26 27 28 29 30 31 32 33 34 35 36 37 38
000
FTUS41 KOKX 201125
TAFEWR
TAF
KEWR 201125Z 2012/2118 22006KT 1/2SM FG OVC002 WS020/23035KT
      TEMPO 2012/2013 1/4SM FG
     FM201400 23007KT 2SM BR BKN006
     FM201600 22008KT 6SM BR SCT007 BKN015
     FM201800 23012G18KT P6SM SCT015 SCT025 BKN250
     FM202300 20006KT P6SM SCT015 BKN250
     FM210300 21004KT 3SM BR BKN007
     FM210500 20004KT 1/2SM FG BKN004
     FM211300 21009KT 2SM BR SCT005 BKN015
     FM211500 22011KT P6SM SCT015 SCT040=

USA.gov is the U.S. government's official web portal to all federal, state and local government web resources and services.